sat.trackr.live / text

‹ back to catalog

STARLINK-4317

NORAD 53058 · 2022-077R

PAYLOAD ACTIVE UNKNOWN

§ Identity

Operator
Country
US
Launch date
2022-07-11
Launch site
AFWTR
Launch vehicle
Mass (kg)
RCS (m²)

Purposes: comms

External: N2YO · Heavens-Above · Gunter

§ Orbital elements

Epoch: 2026-05-25T01:39:13.144032Z

Period
95.64 min
Inclination
97.4470°
Eccentricity
0.0001691
Mean motion
15.05659534 rev/d
Perigee alt
548.3 km
Apogee alt
550.7 km
Semi-major
6,927.6 km
B*
-1.2606e-4
RAAN
325.0742°
Arg perigee
87.6138°
Mean anomaly
272.5283°
Rev number
21,241

§ Raw data

STARLINK-43171 53058U 22077R   26145.06890213 -.00001877  00000+0 -12606-3 0  99982 53058  97.4470 325.0742 0001691  87.6138 272.5283 15.05659534212419

JSON: /api/v1/satellites/53058 · /tle

For live sub-satellite position, see the globe view (requires WebGL).

§ Visibility from observer

Set your observer location to see the next 7 days of passes ≥ 10°. The values pass through the URL so the page stays shareable.

No JS? Fill the form by hand. The geolocation button needs JavaScript.